Air Resources Laboratory banner image
Air Resources Laboratory web site National Oceanic and Atmospheric Administration (NOAA)

az roundup


Office: PSR

ASUS45 KPSR 200810
RWRAZ

ARIZONA HOURLY REGIONAL WEATHER ROUNDUP
NATIONAL WEATHER SERVICE PHOENIX AZ
100 AM MST THU SEP 20 2018

NOTE: FAIR INDICATES FEW OR NO CLOUDS BELOW 12,000 FEET WITH NO
SIGNIFICANT WEATHER AND/OR OBSTRUCTIONS TO VISIBILITY.

AZZ001>003-036-200900-
NORTHWEST ARIZONA

CITY           SKY/WX    TMP DP  RH WIND       PRES   REMARKS
BULLHEAD CITY  CLEAR     84  64  51 SW5       29.72S
KINGMAN        CLEAR     70  62  76 SE7       29.90R
$$

AZZ004>008-015-016-018-200900-
NORTH CENTRAL ARIZONA

CITY           SKY/WX    TMP DP  RH WIND       PRES   REMARKS
GRAND CANYON   CLEAR     47  46  97 CALM      30.10S
WILLIAMS       CLEAR     50  48  93 CALM      30.07F
PRESCOTT       CLEAR     59  53  80 CALM      30.01S
FLAGSTAFF      PTCLDY    48  47  96 CALM      30.12S
PAYSON         PTCLDY    59  55  88 CALM      30.00S
PAGE           CLEAR     67  55  65 VRB7      29.92R
$$

AZZ009>014-017-200900-
NORTHEAST ARIZONA

CITY           SKY/WX    TMP DP  RH WIND       PRES   REMARKS
WINSLOW        CLOUDY    60  57  89 E7        30.00F
SAINT JOHNS    LGT RAIN  59  55  87 SE10      30.01F
WINDOW ROCK    CLOUDY    56  53  90 CALM      30.09R
SHOW LOW       CLOUDY    57  52  82 E3        30.06S
$$

AZZ540-542>544-546-548-200900-
GREATER PHOENIX AREA

CITY           SKY/WX    TMP DP  RH WIND       PRES   REMARKS
PHOENIX        PTCLDY    75  71  87 N3        29.76S
BUCKEYE          N/A     73  66  78 N5        29.78F
DEER VALLEY    CLEAR     72  70  93 NW3       29.79F
SCOTTSDALE     CLEAR     73  70  90 CALM      29.80F
MESA-GATEWAY   MOCLDY    73  71  94 NW3       29.80S
$$

AZZ539-553-200900-
SOUTHWEST MARICOPA COUNTY AND PINAL COUNTY

CITY           SKY/WX    TMP DP  RH WIND       PRES   REMARKS
CASA GRANDE    CLEAR     72  70  93 N6        29.80F
$$

AZZ503-504-507>509-200900-
SOUTHEAST ARIZONA

CITY           SKY/WX    TMP DP  RH WIND       PRES   REMARKS
TUCSON         CLOUDY    70  67  90 CALM      29.86S
NOGALES        CLOUDY    66  64  93 CALM      29.92S
DOUGLAS        LGT RAIN  64  64 100 S5        29.93F
SAFFORD        CLOUDY    67  66  97 NW5       29.87R
$$

AZZ532-200900-
SOUTHWEST ARIZONA

CITY           SKY/WX    TMP DP  RH WIND       PRES   REMARKS
YUMA           CLEAR     83  73  72 SE9       29.70S
$$

CAZ041-043-047-048-061-525>527-560>570-200900-
SOUTHERN CALIFORNIA

CITY           SKY/WX    TMP DP  RH WIND       PRES   REMARKS
DOWNTOWN L.A.  CLEAR     65  57  75 CALM      29.75S
L.A. AIRPORT   CLEAR     65  59  81 CALM      29.76S
SAN DIEGO      PTCLDY    67  61  81 CALM      29.78S
BURBANK        CLEAR     66  55  67 CALM      29.76S
ONTARIO        CLEAR     66  52  60 CALM      29.77S
RIVERSIDE      CLEAR     65  54  67 CALM      29.77F
PALM SPRINGS   CLEAR     82  48  30 NW5       29.74R
EL CENTRO NAS  CLEAR     83  71  67 E6        29.67S
IMPERIAL       PTCLDY    84  74  71 E8        29.66R
BLYTHE         CLEAR     83  70  64 E6        29.72R
NEEDLES        CLEAR     87  64  46 SE9       29.73S
$$

NVZ020-UTZ003-200900-
SOUTHERN NEVADA-UTAH

CITY           SKY/WX    TMP DP  RH WIND       PRES   REMARKS
LAS VEGAS      CLEAR     78  16   9 NW7       29.76R
SALT LAKE CITY CLEAR     59  37  44 N5        29.91R
$$

NMZ009-TXZ055-200900-
NEW MEXICO-WEST TEXAS

CITY           SKY/WX    TMP DP  RH WIND       PRES   REMARKS
ALBUQUERQUE    LGT RAIN  64  60  87 W9        30.04S
EL PASO        LGT RAIN  72  60  66 W8        29.92S
$$


........................KEY........................
SKY/WX - SKY CONDITION/WEATHER
TMP    - TEMPERATURE IN FAHRENHEIT
DP     - DEW POINT IN FAHRENHEIT
RH     - RELATIVE HUMIDITY IN PERCENT
WIND   - DIRECTION AND SPEED IN MILES PER HOUR (MPH)
VRB    - VARIABLE WIND DIRECTION
PRES   - MEAN SEA LEVEL PRESSURE IN INCHES OF MERCURY
         F - FALLING PRESSURE   R - RISING PRESSURE
         S - STEADY PRESSURE
VSB    - VISIBILITY IN MILES
HX     - HEAT INDEX IN FAHRENHEIT
WCI    - WIND CHILL INDEX IN FAHRENHEIT
TC     - TEMPERATURE IN CELSIUS WHICH IS ALSO KNOWN AS
         TEMPERATURE IN CENTIGRADE
AFB    - AIR FORCE BASE
         LUKE AFB IS LUKE AIR FORCE BASE
         DAVIS-MONTHAN IS DAVIS-MONTHAN AIR FORCE BASE
NAS    - NAVAL AIR STATION
         EL CENTRO NAS IS EL CENTRO NAVAL AIR STATION
N/A    - NOT AVAILABLE



ASUS45 KPSR 200810
RWRAZ

ARIZONA HOURLY REGIONAL WEATHER ROUNDUP
NATIONAL WEATHER SERVICE PHOENIX AZ
100 AM MST THU SEP 20 2018

NOTE: FAIR INDICATES FEW OR NO CLOUDS BELOW 12,000 FEET WITH NO
SIGNIFICANT WEATHER AND/OR OBSTRUCTIONS TO VISIBILITY.

AZZ001>003-036-200900-
NORTHWEST ARIZONA

CITY           SKY/WX    TMP DP  RH WIND       PRES   REMARKS
BULLHEAD CITY  CLEAR     84  64  51 SW5       29.72S
KINGMAN        CLEAR     70  62  76 SE7       29.90R
$$

AZZ004>008-015-016-018-200900-
NORTH CENTRAL ARIZONA

CITY           SKY/WX    TMP DP  RH WIND       PRES   REMARKS
GRAND CANYON   CLEAR     47  46  97 CALM      30.10S
WILLIAMS       CLEAR     50  48  93 CALM      30.07F
PRESCOTT       CLEAR     59  53  80 CALM      30.01S
FLAGSTAFF      PTCLDY    48  47  96 CALM      30.12S
PAYSON         PTCLDY    59  55  88 CALM      30.00S
PAGE           CLEAR     67  55  65 VRB7      29.92R
$$

AZZ009>014-017-200900-
NORTHEAST ARIZONA

CITY           SKY/WX    TMP DP  RH WIND       PRES   REMARKS
WINSLOW        CLOUDY    60  57  89 E7        30.00F
SAINT JOHNS    LGT RAIN  59  55  87 SE10      30.01F
WINDOW ROCK    CLOUDY    56  53  90 CALM      30.09R
SHOW LOW       CLOUDY    57  52  82 E3        30.06S
$$

AZZ540-542>544-546-548-200900-
GREATER PHOENIX AREA

CITY           SKY/WX    TMP DP  RH WIND       PRES   REMARKS
PHOENIX        PTCLDY    75  71  87 N3        29.76S
BUCKEYE          N/A     73  66  78 N5        29.78F
DEER VALLEY    CLEAR     72  70  93 NW3       29.79F
SCOTTSDALE     CLEAR     73  70  90 CALM      29.80F
MESA-GATEWAY   MOCLDY    73  71  94 NW3       29.80S
$$

AZZ539-553-200900-
SOUTHWEST MARICOPA COUNTY AND PINAL COUNTY

CITY           SKY/WX    TMP DP  RH WIND       PRES   REMARKS
CASA GRANDE    CLEAR     72  70  93 N6        29.80F
$$

AZZ503-504-507>509-200900-
SOUTHEAST ARIZONA

CITY           SKY/WX    TMP DP  RH WIND       PRES   REMARKS
TUCSON         CLOUDY    70  67  90 CALM      29.86S
NOGALES        CLOUDY    66  64  93 CALM      29.92S
DOUGLAS        LGT RAIN  64  64 100 S5        29.93F
SAFFORD        CLOUDY    67  66  97 NW5       29.87R
$$

AZZ532-200900-
SOUTHWEST ARIZONA

CITY           SKY/WX    TMP DP  RH WIND       PRES   REMARKS
YUMA           CLEAR     83  73  72 SE9       29.70S
$$

CAZ041-043-047-048-061-525>527-560>570-200900-
SOUTHERN CALIFORNIA

CITY           SKY/WX    TMP DP  RH WIND       PRES   REMARKS
DOWNTOWN L.A.  CLEAR     65  57  75 CALM      29.75S
L.A. AIRPORT   CLEAR     65  59  81 CALM      29.76S
SAN DIEGO      PTCLDY    67  61  81 CALM      29.78S
BURBANK        CLEAR     66  55  67 CALM      29.76S
ONTARIO        CLEAR     66  52  60 CALM      29.77S
RIVERSIDE      CLEAR     65  54  67 CALM      29.77F
PALM SPRINGS   CLEAR     82  48  30 NW5       29.74R
EL CENTRO NAS  CLEAR     83  71  67 E6        29.67S
IMPERIAL       PTCLDY    84  74  71 E8        29.66R
BLYTHE         CLEAR     83  70  64 E6        29.72R
NEEDLES        CLEAR     87  64  46 SE9       29.73S
$$

NVZ020-UTZ003-200900-
SOUTHERN NEVADA-UTAH

CITY           SKY/WX    TMP DP  RH WIND       PRES   REMARKS
LAS VEGAS      CLEAR     78  16   9 NW7       29.76R
SALT LAKE CITY CLEAR     59  37  44 N5        29.91R
$$

NMZ009-TXZ055-200900-
NEW MEXICO-WEST TEXAS

CITY           SKY/WX    TMP DP  RH WIND       PRES   REMARKS
ALBUQUERQUE    LGT RAIN  64  60  87 W9        30.04S
EL PASO        LGT RAIN  72  60  66 W8        29.92S
$$


........................KEY........................
SKY/WX - SKY CONDITION/WEATHER
TMP    - TEMPERATURE IN FAHRENHEIT
DP     - DEW POINT IN FAHRENHEIT
RH     - RELATIVE HUMIDITY IN PERCENT
WIND   - DIRECTION AND SPEED IN MILES PER HOUR (MPH)
VRB    - VARIABLE WIND DIRECTION
PRES   - MEAN SEA LEVEL PRESSURE IN INCHES OF MERCURY
         F - FALLING PRESSURE   R - RISING PRESSURE
         S - STEADY PRESSURE
VSB    - VISIBILITY IN MILES
HX     - HEAT INDEX IN FAHRENHEIT
WCI    - WIND CHILL INDEX IN FAHRENHEIT
TC     - TEMPERATURE IN CELSIUS WHICH IS ALSO KNOWN AS
         TEMPERATURE IN CENTIGRADE
AFB    - AIR FORCE BASE
         LUKE AFB IS LUKE AIR FORCE BASE
         DAVIS-MONTHAN IS DAVIS-MONTHAN AIR FORCE BASE
NAS    - NAVAL AIR STATION
         EL CENTRO NAS IS EL CENTRO NAVAL AIR STATION
N/A    - NOT AVAILABLE